Glendive, MT

3:50 PM MDT on May 29, 2017 (GMT -0600)
Dawson Community

Weather History for KGDV - November, 2013

Change the Weather History Date:

Thursday, November 7, 2013

  Actual Average Record
Temperature  
Mean Temperature 32 °F -  
Max Temperature 46 °F 41 °F 73 °F (1999)
Min Temperature 17 °F 21 °F 1 °F (2003)
Degree Days  
Heating Degree Days 34    
Moisture  
Dew Point 20 °F    
Average Humidity 62    
Maximum Humidity 86    
Minimum Humidity 34    
Precipitation  
Precipitation 0.00 in - - ()
Sea Level Pressure  
Sea Level Pressure 30.10 in    
Wind  
Wind Speed 6 mph (SSE)    
Max Wind Speed 12 mph    
Max Gust Speed -    
Visibility 10 miles    
Events      
Averages and records for this station are not official NWS values.
T = Trace of Precipitation, MM = Missing Value Source: NWS Daily Summary

Daily Weather History Graph

Daily Weather History Graph

Search for Another Location

Airport or City:

Trip Planner

Search our weather history database for the weather conditions in past years. The results will help you decide how hot, cold, wet, or windy it might be!

Date:

Astronomy

Nov. 07, 2013 Rise Set
Actual Time 6:51 AM MST 4:33 PM MST
Civil Twilight 6:19 AM MST 5:06 PM MST
Nautical Twilight 5:42 AM MST 5:42 PM MST
Astronomical Twilight 5:06 AM MST 6:18 PM MST
Moon 11:05 AM MST (11/7) 8:45 PM MST (11/7)
Length of Visible Light 10h 47m
Length of Day
9h 41m
Waxing Crescent, 23% of the Moon is Illuminated
Nov 7
Waxing Crescent
Nov 9
First Quarter
Nov 17
Full
Nov 25
Last Quarter
Dec 2
New

Hourly Weather History & Observations

Time (MST) Temp. Windchill Dew Point Humidity Pressure Visibility Wind Dir Wind Speed Gust Speed Precip Events Conditions
12:15 AM 24.8 °F 19.1 °F 17.6 °F 74% 30.25 in 10.0 mi WNW 4.6 mph - N/A   Clear
12:35 AM 23.0 °F 17.0 °F 15.8 °F 74% 30.25 in 10.0 mi NW 4.6 mph - N/A   Clear
12:55 AM 21.2 °F 16.4 °F 15.8 °F 80% 30.25 in 10.0 mi SSE 3.5 mph - N/A   Clear
1:15 AM 21.2 °F - 17.6 °F 86% 30.25 in 10.0 mi Calm Calm - N/A   Clear
1:35 AM 19.4 °F 11.5 °F 12.2 °F 74% 30.25 in 10.0 mi SW 5.8 mph - N/A   Clear
1:55 AM 19.4 °F 10.4 °F 15.8 °F 86% 30.25 in 10.0 mi SSW 6.9 mph - N/A   Clear
2:15 AM 21.2 °F 14.9 °F 15.8 °F 80% 30.25 in 10.0 mi SW 4.6 mph - N/A   Clear
2:35 AM 19.4 °F 10.4 °F 15.8 °F 86% 30.25 in 10.0 mi South 6.9 mph - N/A   Clear
3:15 AM 21.2 °F 12.6 °F 17.6 °F 86% 30.25 in 10.0 mi South 6.9 mph - N/A   Clear
3:35 AM 21.2 °F 13.6 °F 17.6 °F 86% 30.25 in 10.0 mi SSE 5.8 mph - N/A   Clear
3:55 AM 19.4 °F 10.4 °F 15.8 °F 86% 30.25 in 10.0 mi SSW 6.9 mph - N/A   Clear
4:15 AM 21.2 °F 14.9 °F 17.6 °F 86% 30.25 in 10.0 mi South 4.6 mph - N/A   Clear
4:35 AM 21.2 °F 16.4 °F 15.8 °F 80% 30.26 in 10.0 mi SSE 3.5 mph - N/A   Clear
4:55 AM 19.4 °F 12.8 °F 14.0 °F 80% 30.26 in 10.0 mi SSW 4.6 mph - N/A   Clear
5:15 AM 21.2 °F 13.6 °F 17.6 °F 86% 30.26 in 10.0 mi SSW 5.8 mph - N/A   Clear
5:35 AM 19.4 °F 11.5 °F 15.8 °F 86% 30.26 in 10.0 mi SSW 5.8 mph - N/A   Clear
5:55 AM 17.6 °F 8.2 °F 14.0 °F 86% 30.25 in 10.0 mi SW 6.9 mph - N/A   Clear
6:15 AM 17.6 °F 7.3 °F 14.0 °F 86% 30.25 in 10.0 mi SW 8.1 mph - N/A   Clear
6:35 AM 21.2 °F 11.7 °F 15.8 °F 80% 30.26 in 10.0 mi SW 8.1 mph - N/A   Clear
7:35 AM 21.2 °F - 14.0 °F 74% 30.26 in 10.0 mi Calm Calm - N/A   Clear
7:55 AM 24.8 °F 20.5 °F 19.4 °F 80% 30.26 in 10.0 mi WSW 3.5 mph - N/A   Clear
8:15 AM 26.6 °F 21.2 °F 21.2 °F 80% 30.26 in 10.0 mi South 4.6 mph - N/A   Clear
8:55 AM 28.4 °F 22.2 °F 24.8 °F 86% 30.26 in 10.0 mi South 5.8 mph - N/A   Clear
9:15 AM 30.2 °F 23.4 °F 24.8 °F 80% 30.27 in 10.0 mi South 6.9 mph - N/A   Clear
9:35 AM 32.0 °F 24.8 °F 24.8 °F 75% 30.26 in 10.0 mi South 8.1 mph - N/A   Clear
9:55 AM 35.6 °F 29.9 °F 26.6 °F 70% 30.26 in 10.0 mi South 6.9 mph - N/A   Clear
10:15 AM 35.6 °F 29.2 °F 26.6 °F 70% 30.26 in 10.0 mi South 8.1 mph - N/A   Clear
10:35 AM 37.4 °F 32.1 °F 26.6 °F 65% 30.25 in 10.0 mi SE 6.9 mph - N/A   Clear
10:55 AM 39.2 °F 34.2 °F 26.6 °F 61% 30.24 in 10.0 mi South 6.9 mph - N/A   Clear
11:15 AM 39.2 °F 33.6 °F 26.6 °F 61% 30.23 in 10.0 mi SSE 8.1 mph - N/A   Clear
11:36 AM 41.0 °F 35.2 °F 24.8 °F 53% 30.22 in 10.0 mi South 9.2 mph - N/A   Clear
11:55 AM 42.8 °F 37.5 °F 24.8 °F 49% 30.20 in 10.0 mi South 9.2 mph - N/A   Clear
12:35 PM 44.6 °F 40.2 °F 23.0 °F 43% 30.17 in 10.0 mi SE 8.1 mph - N/A   Clear
12:55 PM 44.6 °F 40.2 °F 21.2 °F 39% 30.15 in 10.0 mi SSE 8.1 mph - N/A   Clear
1:35 PM 46.4 °F 41.9 °F 21.2 °F 37% 30.13 in 10.0 mi SSE 9.2 mph - N/A   Clear
1:55 PM 46.4 °F 41.9 °F 21.2 °F 37% 30.12 in 10.0 mi SSE 9.2 mph - N/A   Clear
2:15 PM 46.4 °F 42.4 °F 21.2 °F 37% 30.10 in 10.0 mi South 8.1 mph - N/A   Clear
2:35 PM 46.4 °F 41.9 °F 19.4 °F 34% 30.10 in 10.0 mi South 9.2 mph - N/A   Clear
2:55 PM 46.4 °F 42.4 °F 21.2 °F 37% 30.08 in 10.0 mi South 8.1 mph - N/A   Clear
3:15 PM 46.4 °F 41.5 °F 19.4 °F 34% 30.08 in 10.0 mi South 10.4 mph - N/A   Clear
3:35 PM 44.6 °F 39.7 °F 19.4 °F 37% 30.06 in 10.0 mi SSE 9.2 mph - N/A   Clear
3:55 PM 44.6 °F 41.4 °F 19.4 °F 37% 30.05 in 10.0 mi SSE 5.8 mph - N/A   Clear
4:15 PM 41.0 °F 35.8 °F 19.4 °F 42% 30.03 in 10.0 mi ESE 8.1 mph - N/A   Clear
4:35 PM 39.2 °F 33.6 °F 19.4 °F 45% 30.02 in 10.0 mi ESE 8.1 mph - N/A   Clear
4:55 PM 39.2 °F 33.0 °F 19.4 °F 45% 30.00 in 10.0 mi ESE 9.2 mph - N/A   Clear
5:15 PM 37.4 °F 31.4 °F 19.4 °F 48% 29.99 in 10.0 mi East 8.1 mph - N/A   Clear
5:35 PM 37.4 °F 32.1 °F 21.2 °F 52% 29.97 in 10.0 mi East 6.9 mph - N/A   Scattered Clouds
5:55 PM 37.4 °F 32.1 °F 21.2 °F 52% 29.95 in 10.0 mi East 6.9 mph - N/A   Partly Cloudy
6:15 PM 35.6 °F 29.9 °F 21.2 °F 56% 29.94 in 10.0 mi East 6.9 mph - N/A   Clear
6:55 PM 37.4 °F 31.4 °F 21.2 °F 52% 29.91 in 10.0 mi East 8.1 mph - N/A   Clear
7:15 PM 37.4 °F 32.1 °F 21.2 °F 52% 29.90 in 10.0 mi East 6.9 mph - N/A   Mostly Cloudy
7:55 PM 37.4 °F 32.1 °F 21.2 °F 52% 29.87 in 10.0 mi East 6.9 mph - N/A   Mostly Cloudy
8:15 PM 37.4 °F 33.8 °F 21.2 °F 52% 29.86 in 10.0 mi East 4.6 mph - N/A   Partly Cloudy
8:35 PM 39.2 °F 35.9 °F 21.2 °F 49% 29.85 in 10.0 mi ESE 4.6 mph - N/A   Clear
8:55 PM 39.2 °F 35.9 °F 21.2 °F 49% 29.83 in 10.0 mi East 4.6 mph - N/A   Mostly Cloudy
9:15 PM 39.2 °F 35.0 °F 23.0 °F 52% 29.82 in 10.0 mi SE 5.8 mph - N/A   Partly Cloudy
9:35 PM 39.2 °F 34.2 °F 24.8 °F 56% 29.80 in 10.0 mi SSE 6.9 mph - N/A   Mostly Cloudy
9:55 PM 39.2 °F 34.2 °F 24.8 °F 56% 29.78 in 10.0 mi SSE 6.9 mph - N/A   Mostly Cloudy
10:15 PM 39.2 °F 34.2 °F 24.8 °F 56% 29.77 in 10.0 mi SSE 6.9 mph - N/A   Overcast
10:35 PM 41.0 °F 35.8 °F 24.8 °F 53% 29.74 in 10.0 mi SSE 8.1 mph - N/A   Overcast
11:15 PM 41.0 °F 37.1 °F 24.8 °F 53% 29.71 in 10.0 mi SSE 5.8 mph - N/A   Mostly Cloudy
11:35 PM 41.0 °F 34.7 °F 26.6 °F 57% 29.70 in 10.0 mi SSE 10.4 mph - N/A   Overcast
11:55 PM 42.8 °F 36.6 °F 26.6 °F 53% 29.69 in 10.0 mi SSE 11.5 mph - N/A   Overcast